Погода Октябрьское

Погода Октябрьское : погода сейчас, прогноз погоды и архив. Всё, что Вы хотите узнать о погоде Октябрьское!

Поиск расширенной информации на нашем сайте:

Другие новости

Новости СМИ2

Главная страница сайта

Новости сайта

03.07.2017

Напоминаем, что на нашем специализированном сайте Метеоцентр.Азия вы можете получить высокодетализированные автоматические прогнозы погоды по пунктам России, СНГ и мира в авиационном формате (включающие направление и скорость ветра, видимость, явления погоды, количество и форму облачности, нижнюю и верхнюю границу облачности).


Погода Октябрьское - сегодня

Время (UTC), дата Ветер
(°,м/с) 
Видим.   Явления Облачность Т
(°С)
Тd
(°С)
f(%) Тe
(°С)
Pmin
(гПа)
dP
(гПа)
Po
(мм)
O2
(г/м3)
Тmin Tmax R s Состояние
почвы
06 18.07.17 200 (Ю) 10 км    4/4 1000 м 
[Cu hum]
+23.7 +14.6 57 +31  1018.3  -0.1  757  278           
09 18.07.17 220 (ЮЗ) 10 км    10/3 600 м кучево-дожд., верхняя 
[Cb calv|Ci fib]
+25.9 +10.4 38 +27  1017.8  -0.5  757  277           
12 18.07.17 220 (ЮЗ) 20000 м    10/1 1000 м верхняя 
[Cu hum|Ci fib]
+26.1 +8.4 33 +26  1016.7  -1  756  277           
15 18.07.17 310 (СЗ) 10 км    10/1 1000 м верхняя 
[Cu hum|Ci fib]
+24.4 +10.9 43 +27  1016  -0.9  756  278    +26.5       
18 18.07.17 020 (С) 20000 м    10/6 600 м верхняя 
[Sc|Ci fib]
+18.2 +11.7 66 +23  1016.8  0.7  756  283           
21 18.07.17 030 (СВ) 20000 м    10/0 верхняя 
[Ci fib]
+18.6 +9.8 57 +20  1016.1  -0.7  756  283           
00 19.07.17 тихо ()   10 км    10/0 верхняя 
[Ci fib]
+16.7 +10 65 +18  1016.1  756  285           
03 19.07.17 020 (С) 10 км    10/0 верхняя 
[Ci fib]
+23.3 +14.3 57 +31  1015.9  756  278  +16.4         
06 19.07.17 210 (ЮЗ) 10 км    3/3 1000 м 
[Cu med, cong]
+26.1 +16.8 57 +38  1015.1  -0.7  755  274           
09 19.07.17 340 (С) 10 км  гроза без осадков  8/8 600 м кучево-дожд. 
[Cb cap]
+23.9 +15.1 58 +33  1014.5  -0.7  755  276           
12 19.07.17 090 (В) 4000 м  дымка{гроза, ливн. осадки}  8/6 600 м кучево-дожд., средняя 
[Cb calv|Ac trans]
+24.3 +15.8 59 +34  1013.8  -0.7  754  276           
15 19.07.17 020 (С) 10 км    10/0 средняя, верхняя 
[Ac trans|Ci fib]
+22.5 +15.1 63 +31  1013.6  -0.3  754  278    +28  0.0     
18 19.07.17 360 (С) 20000 м    8/8 1500 м 
[Sc]
+18.9 +14.4 75 +28  1014.2  0.5  754  281           
21 19.07.17 020 (С) 20000 м    1/1 1500 м 
[Sc]
+17.4 +14.3 82 +26  1013.8  -0.4  754  283           
00 20.07.17 360 (С) 10 км    ясно 
+16.3 +13.4 83 +24  1014.4  0.5  754  284           
03 20.07.17 120 (ЮВ) 10 км    ясно 
+22.1 +13.8 59 +29  1014.7  0.5  755  279  +16.3         
06 20.07.17 180 (Ю) 20000 м    10/1 1000 м верхняя 
[Cu hum|Ci fib]
+24.3 +12.1 46 +28  1014.9  0.2  755  277           
09 20.07.17 200 (Ю) 20000 м    10/3 1000 м верхняя 
[Cu hum|Ci fib]
+25.3 +10.6 40 +27  1014.3  -0.5  755  276           
12 20.07.17 180 (Ю) 20000 м    10/1 1000 м верхняя 
[Cu hum|Ci fib]
+27.3 +11.7 38 +31  1013.1  -1.2  754  274           
15 20.07.17 300 (СЗ) 20000 м    10/1 1000 м верхняя 
[Cu hum|Ci fib]
+26.2 +12.6 43 +31  1013.5  0.4  754  275    +27.3       
18 20.07.17 360 (С) 20000 м    10/4 600 м кучево-дожд., верхняя 
[Cb cap|Ci fib]
+21.4 +12 55 +25  1014.3  0.6  754  280           
21 20.07.17 350 (С) 20000 м    10/1 1000 м верхняя 
[Cu hum|Ci fib]
+19.4 +10.7 57 +23  1014.4  0.1  754  282           
00 21.07.17 360 (С) 20000 м    10/4 600 м кучево-дожд., верхняя 
[Cb cap|Ci fib]
+21.4 +12 55 +25  1014.3  0.6  754  280           
03 21.07.17 360 (С) 20000 м    ясно 
+22.5 +15 63 +31  1015.7  0.8  755  278  +17.1         
06 21.07.17 220 (ЮЗ) 20000 м    3/3 2000 м средняя 
[Ac trans]
+25.4 +16.7 59 +37  1015.9  0.3  756  275           
Время (UTC), дата Ветер
(°,м/с) 
Видим.   Явления Облачность Т
(°С)
Тd
(°С)
f(%) Тe
(°С)
Pmin
(гПа)
dP
(гПа)
Po
(мм)
O2
(г/м3)
Тmin Tmax R s Состояние
почвы

Для получения пояснительной информации подведите курсор к названию столбца.

ПОГОДА Октябрьское - архив

Всё, что Вы хотите узнать о погоде Октябрьское - удобно и подробно!

Выберите нужную дату (начиная с 1 января 2015* года) и нажмите кнопку "Найти".
Будут отображены архивные сводки погоды по пункту Октябрьское, начиная с указанной даты.


Отображать данные в формате CSV (для использования в таблицах Excel)


Внимание! Наш архив погоды предназначен исключительно для личного некоммерческого использования в познавательных целях. Если Вам необходимы официальные справки о состоянии погоды (для производственных, юридических, коммерческих и т.п. целей), обращайтесь в органы Росгидромета.

*Примечание: данная дата относится к архиву по метеостанциям СССР (Россия, СНГ, Балтия).
Архив по метеостанциям Зарубежной Европы и Азии (кроме Китая) хранится 10 дней, по другим регионам земного шара (Китай, Африка, Америка, Австралия, Океания) - 1 день.

Октябрьское - район местоположения метеостанции


Название, широта, долгота, высота метеостанции:
Октябрьское 62.4°ш. 66.1°д. 72 м над ур. моря [Российская Федерация]

Дополнительная информация

В oтличие oт бoльшинства пoгoдных сайтoв мы публикуем пoдрoбную метеoинфoрмацию в детальнoм прoфессиoнальнoм фoрмате.

Характеристики температуры и влажнoсти вoздуха измеряются на высoте 2 м в тени вдали oт зданий и деревьев.
Скoрoсть ветра измеряется на высoте 10 м (на урoвне рoста челoвека скoрoсть ветра ниже в 1.5-2 раза). Если метеoстанция нахoдится в гoрoде или в лесу, тo скoрoсть ветра занижена на 2-4 м/с пo сравнению с oткрытым местoм. Скoрoсть ветра над акватoриями крупных рек и oзёр, а также на вершинах хoлмoв на 2-5 м/с выше, чем в oбычных услoвиях.
Атмoсфернoе давление в разных тoчках местнoсти мoжет значительнo oтличаться oт давления на метеoстанции, в зависимoсти oт услoвий рельефа (при пoдъёме на 10 м давление пoнижается примернo на 1 мм рт.ст.).